Weather in Veskovo

Russia / Yaroslavl Oblast     56°43′21″N   38°46′57″E
temp.,
°C
wind,
m/s
gust,
m/s
humid.,
%
clouds,
%
prec.,
mm/h
press.,
hPa
HPBL,
m
27 november, sat
sat2700:00+1sw51195100 0.1 1008726
03:00+1sw4993100 0.1 1009467
06:00+1s3899100 0.1 1009394
09:00+1sse41198100 1.6 1009488
12:00+1s51391100 0.1 1008548
15:00+1sse51490100 0.1 1005609
18:00+1sse61490100 0.0 1003797
21:00+1sse61597100 0.6 1000839
28 november, sun
sun2800:00+1s61597100 1.3 998763
03:00+3s61398100 1.9 998643
06:00+3ssw51296100 0.3 998751
09:00+3sw51292100 0.4 1000672
12:00+2sw51193100 0.1 1001879
15:00+2sw51189100 0.1 1003729
18:00+1sw51288100 0.0 1005553
21:00+1sw41090100 0.0 1007603
29 november, mon
mon2900:000ssw389198 0.0 1009296
03:00−1ssw2694100 0.0 1010165
06:000se2398100 0.1 1009129
09:000ese3998100 2.6 1009361
12:00+1e41095100 1.1 1006338
15:00+2ese51299100 1.3 1003413
18:00+2ese51498100 0.4 999440
21:00+3ese61398100 0.9 993479
30 november, tue
tue3000:00+3ese51398100 1.1 988465
03:00+3ese51298100 1.8 982452
06:00+3ese3899100 0.6 976246
09:00+3sw26100100 0.9 974144
12:00+4sw41099100 0.8 973452
15:00+2sw71497100 3.2 975923
18:00+1sw81595100 1.0 9771023
21:00+1sw71496100 1.4 978996
1 december, wed
wed100:000wsw51198100 1.3 980605
03:00−3w5994100 2.4 983707
06:00−4w5992100 0.7 986735
09:00−5w5990100 1.0 990805
12:00−4w5882100 0.1 991892
15:00−5w4783100 0.2 993813
18:00−6wsw488780 0.1 994622
21:00−6w3985100 0.1 994829